EN

Hourly Weather Lagiewniki

Today, 6 August, Friday

Time Temperature Precipitation Wind Pressure Humidity
00:00 +14°C° 0.1 mm 3 mps 739 mmHg 94%
01:00 +14°C° 0.1 mm 3 mps 739 mmHg 93%
02:00 +14°C° 0.1 mm 3 mps 739 mmHg 92%
03:00 +15°C° 0.1 mm 2 mps 739 mmHg 91%
04:00 +15°C° 0.1 mm 2 mps 739 mmHg 91%
05:00 +16°C° 0 mm 2 mps 739 mmHg 88%
06:00 +16°C° 0 mm 2 mps 739 mmHg 84%
07:00 +17°C° 0 mm 2 mps 739 mmHg 81%
08:00 +18°C° 0.1 mm 3 mps 739 mmHg 74%
09:00 +20°C° 0.1 mm 3 mps 739 mmHg 67%
10:00 +21°C° 0.1 mm 3 mps 739 mmHg 60%
11:00 +22°C° 0.2 mm 3 mps 739 mmHg 57%
12:00 +24°C° 0.2 mm 3 mps 739 mmHg 54%
13:00 +24°C° 0.2 mm 3 mps 739 mmHg 51%
14:00 +24°C° 0.2 mm 3 mps 739 mmHg 53%
15:00 +24°C° 0.2 mm 3 mps 739 mmHg 56%
16:00 +24°C° 0.2 mm 2 mps 739 mmHg 58%
17:00 +21°C° 0.3 mm 2 mps 739 mmHg 63%
18:00 +20°C° 0.3 mm 2 mps 739 mmHg 68%
19:00 +20°C° 0.3 mm 1 mps 739 mmHg 73%
20:00 +18°C° 0.1 mm 2 mps 739 mmHg 77%
21:00 +17°C° 0.1 mm 2 mps 739 mmHg 80%
22:00 +17°C° 0.1 mm 2 mps 739 mmHg 83%
23:00 +16°C° 0 mm 2 mps 739 mmHg 85%

Tomorrow, 7 August, Saturday

Time Temperature Precipitation Wind Pressure Humidity
00:00 +16°C° 0 mm 2 mps 740 mmHg 86%
01:00 +16°C° 0 mm 3 mps 740 mmHg 88%
02:00 +16°C° 0 mm 3 mps 740 mmHg 88%
03:00 +14°C° 0 mm 3 mps 740 mmHg 88%
04:00 +14°C° 0 mm 3 mps 740 mmHg 88%
05:00 +16°C° 0 mm 3 mps 740 mmHg 85%
06:00 +17°C° 0 mm 3 mps 741 mmHg 81%
07:00 +18°C° 0 mm 3 mps 741 mmHg 78%
08:00 +20°C° 0 mm 3 mps 741 mmHg 71%
09:00 +21°C° 0 mm 3 mps 741 mmHg 65%
10:00 +23°C° 0 mm 4 mps 741 mmHg 58%
11:00 +25°C° 0 mm 4 mps 741 mmHg 54%
12:00 +26°C° 0 mm 4 mps 741 mmHg 50%
13:00 +27°C° 0 mm 4 mps 741 mmHg 46%
14:00 +27°C° 0 mm 3 mps 740 mmHg 46%
15:00 +27°C° 0 mm 3 mps 740 mmHg 46%
16:00 +28°C° 0 mm 3 mps 740 mmHg 45%
17:00 +26°C° 0 mm 2 mps 740 mmHg 52%
18:00 +25°C° 0 mm 2 mps 739 mmHg 58%
19:00 +24°C° 0 mm 1 mps 739 mmHg 64%
20:00 +23°C° 0 mm 2 mps 739 mmHg 67%
21:00 +21°C° 0 mm 2 mps 739 mmHg 70%
22:00 +20°C° 0 mm 2 mps 738 mmHg 73%
23:00 +19°C° 0 mm 2 mps 738 mmHg 74%

Day after tomorrow, 8 August, Sunday

Time Temperature Precipitation Wind Pressure Humidity
00:00 +19°C° 0 mm 2 mps 737 mmHg 76%
01:00 +18°C° 0 mm 2 mps 737 mmHg 77%
02:00 +18°C° 0 mm 4 mps 737 mmHg 79%
03:00 +17°C° 0 mm 5 mps 738 mmHg 80%
04:00 +17°C° 0 mm 6 mps 738 mmHg 82%
05:00 +17°C° 0 mm 6 mps 739 mmHg 81%
06:00 +17°C° 0 mm 6 mps 740 mmHg 80%
07:00 +17°C° 0 mm 6 mps 741 mmHg 79%
08:00 +20°C° 0 mm 6 mps 742 mmHg 73%
09:00 +21°C° 0 mm 6 mps 742 mmHg 67%
10:00 +22°C° 0 mm 5 mps 743 mmHg 61%
11:00 +23°C° 0 mm 5 mps 743 mmHg 55%
12:00 +25°C° 0 mm 5 mps 743 mmHg 50%
13:00 +26°C° 0 mm 5 mps 743 mmHg 45%
14:00 +26°C° 0 mm 5 mps 744 mmHg 47%
15:00 +25°C° 0 mm 4 mps 744 mmHg 49%
16:00 +25°C° 0 mm 4 mps 744 mmHg 52%
17:00 +23°C° 0 mm 4 mps 745 mmHg 55%
18:00 +21°C° 0 mm 5 mps 745 mmHg 59%
19:00 +20°C° 0 mm 5 mps 746 mmHg 62%
20:00 +19°C° 0.1 mm 5 mps 746 mmHg 66%
21:00 +17°C° 0.1 mm 5 mps 747 mmHg 70%
22:00 +16°C° 0.1 mm 5 mps 747 mmHg 74%
23:00 +16°C° 0 mm 5 mps 747 mmHg 75%

9 August, Monday

Time Temperature Precipitation Wind Pressure Humidity
00:00 +17°C° 0 mm 4 mps 748 mmHg 75%
01:00 +15°C° 0 mm 4 mps 748 mmHg 76%
02:00 +15°C° 0 mm 4 mps 748 mmHg 80%
03:00 +14°C° 0 mm 3 mps 748 mmHg 84%
04:00 +13°C° 0 mm 3 mps 748 mmHg 88%
05:00 +15°C° 0 mm 2 mps 748 mmHg 83%
06:00 +16°C° 0 mm 2 mps 748 mmHg 78%
07:00 +17°C° 0 mm 2 mps 749 mmHg 73%
08:00 +18°C° 0 mm 2 mps 749 mmHg 66%
09:00 +20°C° 0 mm 2 mps 749 mmHg 60%
10:00 +21°C° 0 mm 2 mps 749 mmHg 53%
11:00 +23°C° 0 mm 2 mps 749 mmHg 50%
12:00 +24°C° 0 mm 2 mps 749 mmHg 47%
13:00 +25°C° 0 mm 3 mps 749 mmHg 44%
14:00 +25°C° 0 mm 3 mps 749 mmHg 43%
15:00 +25°C° 0 mm 3 mps 748 mmHg 42%
16:00 +25°C° 0 mm 4 mps 748 mmHg 41%
17:00 +24°C° 0 mm 3 mps 748 mmHg 47%
18:00 +21°C° 0 mm 2 mps 748 mmHg 54%
19:00 +20°C° 0 mm 2 mps 749 mmHg 60%
20:00 +19°C° 0 mm 2 mps 749 mmHg 61%
21:00 +18°C° 0 mm 2 mps 749 mmHg 61%
22:00 +18°C° 0 mm 2 mps 749 mmHg 62%
23:00 +18°C° 0 mm 2 mps 749 mmHg 63%

10 August, Tuesday

Time Temperature Precipitation Wind Pressure Humidity
00:00 +17°C° 0 mm 2 mps 749 mmHg 64%
01:00 +17°C° 0 mm 2 mps 749 mmHg 65%
02:00 +17°C° 0 mm 2 mps 749 mmHg 68%
03:00 +16°C° 0 mm 2 mps 749 mmHg 70%
04:00 +16°C° 0 mm 1 mps 749 mmHg 73%
05:00 +18°C° 0 mm 1 mps 749 mmHg 71%
06:00 +19°C° 0 mm 1 mps 749 mmHg 68%
07:00 +20°C° 0 mm 1 mps 749 mmHg 66%
08:00 +20°C° 0 mm 2 mps 749 mmHg 60%
09:00 +23°C° 0 mm 2 mps 749 mmHg 55%
10:00 +24°C° 0 mm 2 mps 749 mmHg 50%
11:00 +24°C° 0 mm 2 mps 748 mmHg 48%
12:00 +25°C° 0 mm 2 mps 748 mmHg 46%
13:00 +25°C° 0 mm 2 mps 748 mmHg 44%
14:00 +25°C° 0 mm 2 mps 748 mmHg 48%
15:00 +24°C° 0 mm 2 mps 748 mmHg 51%
16:00 +22°C° 0 mm 3 mps 747 mmHg 55%
17:00 +21°C° 0.2 mm 2 mps 747 mmHg 60%
18:00 +20°C° 0.2 mm 2 mps 747 mmHg 65%
19:00 +19°C° 0.2 mm 2 mps 747 mmHg 71%
20:00 +18°C° 0.1 mm 2 mps 748 mmHg 73%
21:00 +17°C° 0.1 mm 2 mps 748 mmHg 75%
22:00 +16°C° 0.1 mm 2 mps 748 mmHg 77%
23:00 +16°C° 0 mm 2 mps 748 mmHg 78%

11 August, Wednesday

Time Temperature Precipitation Wind Pressure Humidity
00:00 +15°C° 0 mm 2 mps 748 mmHg 79%
01:00 +15°C° 0 mm 2 mps 748 mmHg 80%
02:00 +15°C° 0 mm 2 mps 748 mmHg 81%
03:00 +14°C° 0 mm 2 mps 748 mmHg 82%
04:00 +14°C° 0 mm 2 mps 748 mmHg 83%
05:00 +15°C° 0 mm 2 mps 749 mmHg 79%
06:00 +17°C° 0 mm 2 mps 749 mmHg 75%
07:00 +18°C° 0 mm 2 mps 749 mmHg 71%
08:00 +19°C° 0 mm 2 mps 749 mmHg 65%
09:00 +21°C° 0 mm 2 mps 749 mmHg 60%
10:00 +22°C° 0 mm 3 mps 749 mmHg 54%
11:00 +24°C° 0 mm 3 mps 749 mmHg 52%
12:00 +24°C° 0 mm 2 mps 748 mmHg 50%
13:00 +24°C° 0 mm 2 mps 748 mmHg 48%
14:00 +24°C° 0 mm 2 mps 748 mmHg 48%
15:00 +25°C° 0 mm 2 mps 748 mmHg 48%
16:00 +25°C° 0 mm 2 mps 748 mmHg 48%
17:00 +24°C° 0 mm 2 mps 748 mmHg 52%
18:00 +23°C° 0 mm 1 mps 748 mmHg 57%
19:00 +21°C° 0 mm 1 mps 748 mmHg 62%
20:00 +21°C° 0 mm 1 mps 748 mmHg 63%
21:00 +20°C° 0 mm 1 mps 748 mmHg 64%
22:00 +20°C° 0 mm 1 mps 748 mmHg 65%
23:00 +19°C° 0 mm 1 mps 748 mmHg 67%
Show more